Johnson County (6A4)
Johnson County, TN
Field Elevation: 2240
Lat: 36°25.07N  Long: 81°49.51W
CTAF/Unicom Freq: 122.7000
   
    
Weather Advisories
3/6/2015 03:54 Z
Altimeter 30.34" Hg
Wind 040° @ 0 KT
Gusts --
Visibility 10 SM
Ceiling BKN018
Temperature -6° C (21° F)
Dewpoint -9° C (16° F)
Relative Humidity 77%
Density Altitude --
Condensation Altitude 3,900 feet
  Wind and Runways
Indicated Runway = 6
History
 
 
More Info
All DigiWx sites map
 
Johnson County Airport FBO
 
Airport IQ 5010
(M01) General Dewitt Spain Airport
(3M3) Collegedale Muni
 
about DigiWx
 
FAA Disclaimer: The data displayed is for advisory purposes only and is not to be used for flight planning or operations. For official data, please call (not available) to hear the current automated AWOS voice message.
  METAR 6A4 060354Z AUTO 04000KT 10SM BKN018 M06/M09 A3034